RYR28MT EDDK-LCPH

Flight info

Callsign RYR28MT
Flight time N/A
Altitude 35000
Route KUMIK1R/31R KUMIK L603 TESGA DCT ESATI DCT DETEV DCT DINKU DCT BESNI DCT GOMIG DCT BEDOX/N0437F370 DCT MOSAV DCT VEBAR DCT TORTO DCT VABEK UL603 OLOTA DCT DISOR UL608 FSK DCT RIKSO UN127 EXELA UM601 EVENO M601 DASNI M32 TOBAL
Aircraft B738/M-SDE3FGILRWY/SB1

Departure

Time N/A
Airport Cologne Bonn Airport (EDDK)

Arrival

Time 2026-04-26 17:53
Airport Paphos International Airport (LCPH)
Time Latitude Longitude Altitude Speed Heading
2026-04-26 14:49 48.86489 10.93115 35296 ft 464 kts 139°
2026-04-26 14:49 48.84121 10.96573 35525 ft 463 kts 139°
2026-04-26 14:49 48.81829 10.99917 35800 ft 462 kts 139°
2026-04-26 14:50 48.79565 11.03216 36038 ft 460 kts 139°
2026-04-26 14:50 48.77308 11.06500 36219 ft 461 kts 139°
2026-04-26 14:50 48.74923 11.09964 36376 ft 462 kts 139°
2026-04-26 14:50 48.72606 11.13326 36600 ft 461 kts 139°
2026-04-26 14:51 48.70262 11.16725 36828 ft 460 kts 139°
2026-04-26 14:51 48.67949 11.20073 36994 ft 461 kts 139°
2026-04-26 14:51 48.65665 11.23479 37153 ft 462 kts 134°
2026-04-26 14:52 48.62058 11.31572 37227 ft 467 kts 118°
2026-04-26 14:52 48.59154 11.40253 37213 ft 467 kts 118°
2026-04-26 14:53 48.56229 11.49008 37207 ft 466 kts 118°
2026-04-26 14:53 48.53272 11.57681 37207 ft 465 kts 119°
2026-04-26 14:54 48.50279 11.66354 37214 ft 464 kts 119°
2026-04-26 14:54 48.47293 11.74967 37207 ft 464 kts 119°
2026-04-26 14:55 48.44328 11.83495 37210 ft 464 kts 119°
2026-04-26 14:55 48.41309 11.92154 37211 ft 464 kts 119°
2026-04-26 14:56 48.38282 12.00809 37209 ft 464 kts 119°
2026-04-26 14:56 48.35284 12.09350 37205 ft 464 kts 119°
2026-04-26 14:57 48.32268 12.17917 37205 ft 464 kts 119°
2026-04-26 14:57 48.29250 12.26462 37203 ft 464 kts 119°
2026-04-26 14:58 48.26225 12.34997 37192 ft 464 kts 120°
2026-04-26 14:58 48.23180 12.43562 37197 ft 464 kts 120°
2026-04-26 14:59 48.20145 12.52070 37201 ft 464 kts 120°
2026-04-26 14:59 48.17088 12.60618 37191 ft 464 kts 120°
2026-04-26 15:00 48.14018 12.69042 37188 ft 463 kts 124°
2026-04-26 15:00 48.10059 12.76595 37194 ft 460 kts 133°
2026-04-26 15:01 48.05879 12.83811 37184 ft 460 kts 133°
2026-04-26 15:01 48.01707 12.91039 37176 ft 460 kts 133°
2026-04-26 15:02 47.97549 12.98304 37189 ft 460 kts 132°
2026-04-26 15:02 47.93402 13.05567 37193 ft 460 kts 132°
2026-04-26 15:03 47.89249 13.12826 37183 ft 460 kts 132°
2026-04-26 15:03 47.85096 13.20065 37184 ft 460 kts 133°
2026-04-26 15:04 47.80929 13.27305 37188 ft 460 kts 133°
2026-04-26 15:04 47.76764 13.34522 37181 ft 460 kts 133°
2026-04-26 15:05 47.72620 13.41684 37176 ft 460 kts 133°
2026-04-26 15:05 47.68614 13.48587 37175 ft 460 kts 133°
2026-04-26 15:06 47.64436 13.55769 37171 ft 460 kts 133°
2026-04-26 15:06 47.60241 13.62962 37174 ft 459 kts 132°
2026-04-26 15:07 47.54049 13.73543 37181 ft 459 kts 133°
2026-04-26 15:07 47.49868 13.80664 37177 ft 459 kts 133°
2026-04-26 15:08 47.45684 13.87771 37189 ft 459 kts 133°
2026-04-26 15:08 47.41511 13.94842 37165 ft 459 kts 133°
2026-04-26 15:09 47.37336 14.01897 37178 ft 459 kts 133°
2026-04-26 15:09 47.33146 14.08958 37147 ft 459 kts 133°
2026-04-26 15:10 47.29637 14.14857 37157 ft 459 kts 133°
2026-04-26 15:10 47.24700 14.23137 37153 ft 461 kts 133°
2026-04-26 15:11 47.20492 14.30172 37135 ft 461 kts 133°
2026-04-26 15:11 47.16287 14.37187 37136 ft 461 kts 133°
2026-04-26 15:12 47.12050 14.44233 37130 ft 460 kts 133°
2026-04-26 15:12 47.07815 14.51261 37131 ft 459 kts 133°
2026-04-26 15:13 47.03689 14.58088 37130 ft 459 kts 133°
2026-04-26 15:13 46.99509 14.64988 37113 ft 458 kts 133°
2026-04-26 15:14 46.95420 14.71721 37113 ft 457 kts 133°
2026-04-26 15:14 46.91189 14.78669 37113 ft 457 kts 133°
2026-04-26 15:15 46.86957 14.85601 37117 ft 458 kts 133°
2026-04-26 15:15 46.82761 14.92458 37119 ft 458 kts 134°
2026-04-26 15:16 46.78503 14.99397 37120 ft 459 kts 134°
2026-04-26 15:16 46.74231 15.06342 37126 ft 461 kts 134°
2026-04-26 15:17 46.70665 15.12124 37120 ft 462 kts 134°
2026-04-26 15:17 46.65659 15.20223 37134 ft 464 kts 134°
2026-04-26 15:18 46.61299 15.27255 37135 ft 466 kts 134°
2026-04-26 15:18 46.56953 15.34249 37144 ft 467 kts 134°
2026-04-26 15:19 46.52591 15.41250 37152 ft 467 kts 134°
2026-04-26 15:19 46.48342 15.48051 37155 ft 467 kts 134°
2026-04-26 15:20 46.43977 15.55021 37149 ft 466 kts 134°
2026-04-26 15:20 46.40366 15.60775 37159 ft 465 kts 134°
2026-04-26 15:21 46.36011 15.67696 37150 ft 463 kts 134°
2026-04-26 15:21 46.31675 15.74572 37150 ft 462 kts 134°
2026-04-26 15:22 46.27352 15.81411 37150 ft 460 kts 134°
2026-04-26 15:22 46.23054 15.88228 37140 ft 458 kts 133°
2026-04-26 15:23 46.18784 15.95036 37148 ft 457 kts 133°
2026-04-26 15:23 46.14519 16.01820 37149 ft 456 kts 133°
2026-04-26 15:24 46.10250 16.08589 37146 ft 456 kts 134°
2026-04-26 15:24 46.06008 16.15295 37148 ft 457 kts 134°
2026-04-26 15:25 46.02447 16.20912 37148 ft 458 kts 134°
2026-04-26 15:25 45.97493 16.28706 37142 ft 459 kts 134°
2026-04-26 15:26 45.93168 16.35494 37144 ft 461 kts 134°
2026-04-26 15:26 45.88829 16.42285 37141 ft 462 kts 134°
2026-04-26 15:27 45.85209 16.47940 37140 ft 463 kts 134°
2026-04-26 15:27 45.80873 16.54697 37142 ft 464 kts 134°
2026-04-26 15:28 45.76507 16.61484 37137 ft 464 kts 134°
2026-04-26 15:28 45.72113 16.68297 37138 ft 464 kts 134°
2026-04-26 15:29 45.67726 16.75084 37135 ft 464 kts 134°
2026-04-26 15:30 45.58966 16.88588 37128 ft 462 kts 134°
2026-04-26 15:30 45.54604 16.95321 37125 ft 461 kts 133°
2026-04-26 15:31 45.48302 17.05662 37132 ft 460 kts 131°
2026-04-26 15:32 45.42744 17.14836 37130 ft 459 kts 131°
2026-04-26 15:32 45.37849 17.22836 37123 ft 458 kts 132°
2026-04-26 15:33 45.33652 17.29658 37119 ft 458 kts 132°
2026-04-26 15:33 45.29455 17.36465 37123 ft 458 kts 132°
2026-04-26 15:34 45.25289 17.43206 37115 ft 458 kts 132°
2026-04-26 15:34 45.21048 17.50051 37115 ft 458 kts 132°
2026-04-26 15:35 45.16876 17.56771 37116 ft 458 kts 132°
2026-04-26 15:35 45.12649 17.63562 37115 ft 459 kts 132°
2026-04-26 15:36 45.08427 17.70328 37116 ft 459 kts 132°
2026-04-26 15:36 45.04279 17.76958 37122 ft 459 kts 132°
2026-04-26 15:37 45.00047 17.83709 37120 ft 459 kts 132°
2026-04-26 15:37 44.95803 17.90462 37121 ft 459 kts 132°
2026-04-26 15:38 44.91555 17.97203 37117 ft 460 kts 132°
2026-04-26 15:38 44.87301 18.03940 37122 ft 460 kts 132°
2026-04-26 15:39 44.83047 18.10659 37120 ft 460 kts 132°
2026-04-26 15:39 44.79504 18.16245 37123 ft 460 kts 132°
2026-04-26 15:40 44.74525 18.24072 37117 ft 460 kts 132°
2026-04-26 15:40 44.70258 18.30765 37118 ft 459 kts 132°
2026-04-26 15:41 44.65987 18.37446 37117 ft 459 kts 133°
2026-04-26 15:41 44.61718 18.44110 37122 ft 459 kts 133°
2026-04-26 15:42 44.57541 18.50614 37122 ft 459 kts 133°
2026-04-26 15:42 44.53269 18.57252 37130 ft 458 kts 133°
2026-04-26 15:43 44.48994 18.63877 37128 ft 458 kts 133°
2026-04-26 15:44 44.42574 18.73799 37127 ft 458 kts 133°
2026-04-26 15:44 44.36189 18.83631 37124 ft 458 kts 133°
2026-04-26 15:45 44.29761 18.93495 37121 ft 457 kts 133°
2026-04-26 15:46 44.23333 19.03326 37112 ft 457 kts 133°
2026-04-26 15:46 44.19732 19.08819 37112 ft 457 kts 133°
2026-04-26 15:47 44.12524 19.19578 37102 ft 457 kts 139°
2026-04-26 15:48 44.07709 19.25365 37104 ft 457 kts 141°
2026-04-26 15:48 44.02828 19.31018 37101 ft 457 kts 141°
2026-04-26 15:49 43.97978 19.36709 37114 ft 457 kts 140°
2026-04-26 15:49 43.93141 19.42434 37106 ft 457 kts 140°
2026-04-26 15:50 43.88298 19.48169 37111 ft 458 kts 140°
2026-04-26 15:50 43.83488 19.53848 37105 ft 458 kts 140°
2026-04-26 15:51 43.78633 19.59565 37110 ft 458 kts 141°
2026-04-26 15:51 43.73745 19.65309 37102 ft 458 kts 141°
2026-04-26 15:52 43.68883 19.71011 37102 ft 458 kts 141°
2026-04-26 15:52 43.64154 19.76863 37103 ft 459 kts 137°
2026-04-26 15:53 43.59616 19.83054 37105 ft 458 kts 136°
2026-04-26 15:53 43.55094 19.89259 37105 ft 458 kts 136°
2026-04-26 15:54 43.50578 19.95373 37109 ft 458 kts 136°
2026-04-26 15:54 43.46014 20.01500 37111 ft 458 kts 137°
2026-04-26 15:55 43.41464 20.07587 37102 ft 458 kts 137°
2026-04-26 15:55 43.36879 20.13710 37104 ft 458 kts 137°
2026-04-26 15:56 43.32378 20.19708 37106 ft 457 kts 137°
2026-04-26 15:56 43.27810 20.25784 37104 ft 458 kts 137°
2026-04-26 15:57 43.23232 20.31860 37107 ft 458 kts 137°
2026-04-26 15:57 43.18651 20.37925 37102 ft 458 kts 137°
2026-04-26 15:58 43.14057 20.43996 37099 ft 459 kts 137°
2026-04-26 15:58 43.09459 20.50058 37101 ft 459 kts 137°
2026-04-26 15:59 43.04857 20.56115 37096 ft 460 kts 137°
2026-04-26 15:59 43.00241 20.62174 37091 ft 460 kts 137°
2026-04-26 16:00 42.95614 20.68233 37090 ft 461 kts 137°
2026-04-26 16:00 42.91006 20.74254 37092 ft 462 kts 137°
2026-04-26 16:01 42.86367 20.80306 37087 ft 462 kts 137°
2026-04-26 16:01 42.81748 20.86319 37070 ft 462 kts 135°
2026-04-26 16:02 42.77113 20.92338 37092 ft 461 kts 135°
2026-04-26 16:02 42.72468 20.98362 37088 ft 460 kts 135°
2026-04-26 16:03 42.67841 21.04349 37075 ft 458 kts 135°
2026-04-26 16:03 42.63229 21.10298 37081 ft 458 kts 138°
2026-04-26 16:04 42.58598 21.16263 37071 ft 458 kts 138°
2026-04-26 16:04 42.53974 21.22208 37078 ft 459 kts 138°
2026-04-26 16:05 42.49337 21.28163 37084 ft 460 kts 138°
2026-04-26 16:05 42.44697 21.34108 37068 ft 462 kts 138°
2026-04-26 16:06 42.40004 21.40089 37056 ft 463 kts 138°
2026-04-26 16:06 42.35387 21.45969 37058 ft 465 kts 138°
2026-04-26 16:07 42.30697 21.51934 37045 ft 466 kts 138°
2026-04-26 16:07 42.25964 21.57943 37034 ft 467 kts 138°
2026-04-26 16:08 42.21208 21.63920 37025 ft 467 kts 139°
2026-04-26 16:08 42.16333 21.69694 37022 ft 466 kts 141°
2026-04-26 16:09 42.11435 21.75402 37024 ft 466 kts 140°
2026-04-26 16:09 42.06549 21.81123 37019 ft 465 kts 140°
2026-04-26 16:10 42.01709 21.86807 37022 ft 464 kts 140°
2026-04-26 16:10 41.96848 21.92513 37011 ft 464 kts 140°
2026-04-26 16:11 41.91988 21.98206 37014 ft 463 kts 140°
2026-04-26 16:11 41.87128 22.03885 37011 ft 463 kts 140°
2026-04-26 16:12 41.83086 22.08599 37009 ft 463 kts 140°
2026-04-26 16:12 41.74965 22.18045 37002 ft 464 kts 140°
2026-04-26 16:13 41.70090 22.23699 37003 ft 464 kts 140°
2026-04-26 16:13 41.65205 22.29354 36998 ft 464 kts 140°
2026-04-26 16:14 41.60316 22.35002 36997 ft 465 kts 140°
2026-04-26 16:15 41.53789 22.42523 36989 ft 466 kts 140°
2026-04-26 16:15 41.48877 22.48169 36989 ft 466 kts 140°
2026-04-26 16:16 41.41523 22.56602 36979 ft 467 kts 140°
2026-04-26 16:16 41.36604 22.62228 36983 ft 466 kts 140°
2026-04-26 16:17 41.31685 22.67844 36970 ft 466 kts 140°
2026-04-26 16:17 41.26761 22.73453 36963 ft 466 kts 140°
2026-04-26 16:18 41.20131 22.82811 36977 ft 464 kts 129°
2026-04-26 16:19 41.13965 22.92723 36963 ft 464 kts 130°
2026-04-26 16:20 41.07731 23.02532 36958 ft 463 kts 130°
2026-04-26 16:20 41.01740 23.12143 36962 ft 463 kts 129°
2026-04-26 16:21 40.97643 23.18714 36951 ft 463 kts 129°
2026-04-26 16:21 40.93531 23.25280 36955 ft 463 kts 129°
2026-04-26 16:22 40.89441 23.31792 36951 ft 463 kts 129°
2026-04-26 16:22 40.85326 23.38327 36949 ft 463 kts 129°
2026-04-26 16:23 40.81204 23.44859 36952 ft 463 kts 129°
2026-04-26 16:23 40.77082 23.51379 36959 ft 463 kts 129°
2026-04-26 16:24 40.72982 23.57849 36955 ft 463 kts 129°
2026-04-26 16:24 40.68854 23.64351 36965 ft 463 kts 129°
2026-04-26 16:25 40.64724 23.70842 36967 ft 462 kts 129°
2026-04-26 16:25 40.60591 23.77322 36962 ft 462 kts 129°
2026-04-26 16:26 40.56464 23.83782 36973 ft 461 kts 129°
2026-04-26 16:26 40.52332 23.90233 36973 ft 461 kts 129°
2026-04-26 16:27 40.48211 23.96655 36974 ft 460 kts 129°
2026-04-26 16:27 40.44114 24.03026 36979 ft 459 kts 129°
2026-04-26 16:28 40.39992 24.09423 36979 ft 458 kts 129°
2026-04-26 16:28 40.35878 24.15796 36989 ft 458 kts 129°
2026-04-26 16:29 40.31760 24.22160 36984 ft 457 kts 129°
2026-04-26 16:29 40.27643 24.28510 36996 ft 457 kts 129°
2026-04-26 16:30 40.23532 24.34837 36990 ft 457 kts 129°
2026-04-26 16:30 40.19415 24.41159 36997 ft 456 kts 129°
2026-04-26 16:31 40.15295 24.47475 36994 ft 456 kts 129°
2026-04-26 16:31 40.11174 24.53779 37001 ft 456 kts 129°
2026-04-26 16:32 40.07747 24.59012 36994 ft 456 kts 129°
2026-04-26 16:32 40.02925 24.66359 37004 ft 456 kts 129°
2026-04-26 16:33 39.98800 24.72631 37001 ft 456 kts 129°
2026-04-26 16:33 39.94667 24.78902 37005 ft 456 kts 129°
2026-04-26 16:34 39.90535 24.85159 36995 ft 456 kts 129°
2026-04-26 16:34 39.86393 24.91417 36993 ft 456 kts 129°
2026-04-26 16:35 39.82251 24.97664 36983 ft 456 kts 129°
2026-04-26 16:35 39.78100 25.03912 36859 ft 459 kts 131°
2026-04-26 16:36 39.73904 25.10215 36994 ft 465 kts 131°
2026-04-26 16:36 39.69638 25.16609 37003 ft 473 kts 131°
2026-04-26 16:37 39.65295 25.23106 37000 ft 478 kts 131°
2026-04-26 16:37 39.60927 25.29626 37001 ft 480 kts 131°
2026-04-26 16:38 39.56542 25.36158 37008 ft 481 kts 131°
2026-04-26 16:38 39.52182 25.42639 37001 ft 480 kts 131°
2026-04-26 16:39 39.47803 25.49135 37003 ft 478 kts 131°
2026-04-26 16:39 39.43441 25.55593 37007 ft 475 kts 131°
2026-04-26 16:40 39.39095 25.62013 37008 ft 473 kts 130°
2026-04-26 16:40 39.34763 25.68400 37008 ft 471 kts 130°
2026-04-26 16:41 39.30453 25.74740 37014 ft 469 kts 130°
2026-04-26 16:41 39.26166 25.81035 37011 ft 468 kts 130°
2026-04-26 16:42 39.21867 25.87336 37015 ft 467 kts 130°
2026-04-26 16:42 39.17564 25.93628 37013 ft 468 kts 130°
2026-04-26 16:43 39.13258 25.99913 37018 ft 469 kts 130°
2026-04-26 16:43 39.08940 26.06203 37007 ft 470 kts 130°
2026-04-26 16:44 39.04596 26.12517 37007 ft 471 kts 130°
2026-04-26 16:44 39.00255 26.18816 36999 ft 472 kts 130°
2026-04-26 16:45 38.95891 26.25134 36996 ft 473 kts 130°
2026-04-26 16:45 38.91518 26.31454 36991 ft 473 kts 130°
2026-04-26 16:46 38.87146 26.37762 36992 ft 473 kts 130°
2026-04-26 16:46 38.82740 26.44017 36978 ft 473 kts 135°
2026-04-26 16:47 38.77853 26.49646 36980 ft 472 kts 139°
2026-04-26 16:47 38.72859 26.55083 36983 ft 471 kts 139°
2026-04-26 16:48 38.67894 26.60549 36971 ft 470 kts 138°
2026-04-26 16:48 38.63015 26.65980 36968 ft 469 kts 138°
2026-04-26 16:49 38.58109 26.71450 36974 ft 468 kts 137°
2026-04-26 16:49 38.53209 26.76903 36974 ft 467 kts 138°
2026-04-26 16:50 38.48321 26.82327 36967 ft 466 kts 137°
2026-04-26 16:50 38.43432 26.87741 36964 ft 465 kts 137°
2026-04-26 16:51 38.38584 26.93101 36966 ft 465 kts 137°
2026-04-26 16:51 38.33666 26.98531 36971 ft 465 kts 137°
2026-04-26 16:52 38.30426 27.02108 36967 ft 466 kts 137°
2026-04-26 16:52 38.23924 27.09399 36973 ft 465 kts 137°
2026-04-26 16:53 38.19075 27.14847 36967 ft 465 kts 137°
2026-04-26 16:53 38.14219 27.20285 36965 ft 465 kts 137°
2026-04-26 16:54 38.09396 27.25671 36950 ft 465 kts 137°
2026-04-26 16:54 38.04507 27.31117 36950 ft 464 kts 137°
2026-04-26 16:55 37.99686 27.36479 36952 ft 464 kts 137°
2026-04-26 16:55 37.94839 27.41859 36957 ft 463 kts 137°
2026-04-26 16:56 37.87556 27.49926 36940 ft 463 kts 136°
2026-04-26 16:57 37.82707 27.55286 36939 ft 463 kts 136°
2026-04-26 16:57 37.75436 27.63303 36933 ft 463 kts 136°
2026-04-26 16:58 37.72188 27.66878 36935 ft 463 kts 136°
2026-04-26 16:59 37.64110 27.75748 36936 ft 462 kts 136°
2026-04-26 17:00 37.53591 27.87260 36958 ft 461 kts 136°
2026-04-26 17:00 37.47129 27.94311 36983 ft 462 kts 136°
2026-04-26 17:01 37.42269 27.99603 36982 ft 463 kts 136°
2026-04-26 17:01 37.37390 28.04906 36994 ft 463 kts 136°
2026-04-26 17:02 37.32516 28.10197 36995 ft 464 kts 136°
2026-04-26 17:02 37.27728 28.15372 36998 ft 464 kts 137°
2026-04-26 17:03 37.22720 28.20751 36990 ft 464 kts 137°
2026-04-26 17:03 37.17819 28.26011 36995 ft 464 kts 137°
2026-04-26 17:04 37.12971 28.31241 36985 ft 463 kts 136°
2026-04-26 17:04 37.08095 28.36582 36985 ft 461 kts 136°
2026-04-26 17:05 37.03240 28.41815 36977 ft 460 kts 137°
2026-04-26 17:05 36.98366 28.47003 36982 ft 459 kts 137°
2026-04-26 17:06 36.93588 28.52089 36963 ft 459 kts 137°
2026-04-26 17:06 36.88738 28.57255 36951 ft 457 kts 137°
2026-04-26 17:07 36.83902 28.62400 36944 ft 457 kts 137°
2026-04-26 17:07 36.79057 28.67545 36942 ft 456 kts 137°
2026-04-26 17:08 36.74230 28.72663 36949 ft 456 kts 137°
2026-04-26 17:08 36.69387 28.77788 36941 ft 457 kts 137°
2026-04-26 17:09 36.65329 28.82094 36943 ft 457 kts 137°
2026-04-26 17:09 36.59708 28.88077 36946 ft 458 kts 138°
2026-04-26 17:10 36.54856 28.93234 36946 ft 459 kts 138°
2026-04-26 17:10 36.49996 28.98387 36949 ft 459 kts 138°
2026-04-26 17:11 36.45130 29.03537 36950 ft 460 kts 138°
2026-04-26 17:11 36.40265 29.08678 36951 ft 460 kts 138°
2026-04-26 17:12 36.32957 29.16384 36951 ft 459 kts 138°
2026-04-26 17:13 36.25644 29.24039 36951 ft 459 kts 139°
2026-04-26 17:14 36.18326 29.31669 36951 ft 457 kts 139°
2026-04-26 17:14 36.10969 29.39187 36951 ft 456 kts 140°
2026-04-26 17:15 36.03620 29.46654 36948 ft 455 kts 140°
2026-04-26 17:16 35.98781 29.51608 36943 ft 455 kts 136°
2026-04-26 17:16 35.96658 29.54483 36949 ft 453 kts 125°
2026-04-26 17:16 35.94958 29.57731 36951 ft 451 kts 117°
2026-04-26 17:17 35.92725 29.64934 36955 ft 449 kts 107°
2026-04-26 17:17 35.90824 29.72275 36948 ft 450 kts 107°
2026-04-26 17:18 35.88868 29.79618 36945 ft 451 kts 107°
2026-04-26 17:18 35.86870 29.86958 36940 ft 452 kts 108°
2026-04-26 17:19 35.83847 29.98001 36940 ft 454 kts 108°
2026-04-26 17:19 35.81890 30.05410 36942 ft 455 kts 107°
2026-04-26 17:20 35.80355 30.11595 36926 ft 452 kts 106°
2026-04-26 17:20 35.78225 30.20182 36931 ft 447 kts 107°
2026-04-26 17:21 35.77305 30.23853 36742 ft 451 kts 107°
2026-04-26 17:21 35.76376 30.27544 36453 ft 449 kts 107°
2026-04-26 17:21 35.75456 30.31185 36045 ft 444 kts 107°
2026-04-26 17:21 35.74541 30.34797 35676 ft 440 kts 107°
2026-04-26 17:22 35.73632 30.38379 35284 ft 436 kts 107°
2026-04-26 17:22 35.72729 30.41931 34897 ft 433 kts 107°
2026-04-26 17:22 35.71840 30.45427 34517 ft 430 kts 107°
2026-04-26 17:22 35.70946 30.48941 34132 ft 426 kts 107°
2026-04-26 17:23 35.70060 30.52417 33715 ft 423 kts 107°
2026-04-26 17:23 35.69185 30.55845 33280 ft 420 kts 107°
2026-04-26 17:23 35.68314 30.59254 32902 ft 414 kts 107°
2026-04-26 17:23 35.67461 30.62588 32526 ft 405 kts 107°
2026-04-26 17:24 35.66620 30.65871 32159 ft 401 kts 107°
2026-04-26 17:24 35.65786 30.69121 31794 ft 397 kts 107°
2026-04-26 17:24 35.64960 30.72339 31433 ft 393 kts 107°
2026-04-26 17:24 35.64142 30.75522 31063 ft 390 kts 107°
2026-04-26 17:25 35.63324 30.78700 30709 ft 387 kts 107°
2026-04-26 17:25 35.62514 30.81841 30361 ft 384 kts 107°
2026-04-26 17:25 35.61610 30.84911 30002 ft 381 kts 114°
2026-04-26 17:25 35.60331 30.87741 29681 ft 376 kts 122°
2026-04-26 17:26 35.58908 30.90412 29288 ft 372 kts 123°
2026-04-26 17:26 35.57476 30.93043 28923 ft 368 kts 123°
2026-04-26 17:26 35.56057 30.95643 28526 ft 365 kts 123°
2026-04-26 17:26 35.54653 30.98224 28176 ft 361 kts 123°
2026-04-26 17:27 35.53266 31.00786 27787 ft 358 kts 123°
2026-04-26 17:27 35.51898 31.03320 27427 ft 356 kts 123°
2026-04-26 17:27 35.50537 31.05845 27064 ft 353 kts 123°
2026-04-26 17:27 35.49194 31.08342 26707 ft 350 kts 123°
2026-04-26 17:28 35.47877 31.10789 26357 ft 347 kts 123°
2026-04-26 17:28 35.46532 31.13288 26010 ft 345 kts 123°
2026-04-26 17:28 35.45214 31.15736 25667 ft 342 kts 124°
2026-04-26 17:28 35.43912 31.18154 25321 ft 340 kts 124°
2026-04-26 17:29 35.42606 31.20575 24974 ft 338 kts 124°
2026-04-26 17:29 35.41750 31.22164 24766 ft 337 kts 124°
2026-04-26 17:29 35.40026 31.25358 24301 ft 334 kts 124°
2026-04-26 17:29 35.38749 31.27722 23959 ft 333 kts 124°
2026-04-26 17:30 35.37473 31.30083 23625 ft 331 kts 124°
2026-04-26 17:30 35.36203 31.32430 23249 ft 330 kts 124°
2026-04-26 17:30 35.34938 31.34768 22865 ft 328 kts 124°
2026-04-26 17:30 35.33683 31.37085 22507 ft 326 kts 124°
2026-04-26 17:31 35.32434 31.39390 22160 ft 323 kts 124°
2026-04-26 17:31 35.31196 31.41672 21837 ft 320 kts 124°
2026-04-26 17:31 35.29969 31.43934 21500 ft 318 kts 124°
2026-04-26 17:31 35.28750 31.46179 21177 ft 316 kts 124°
2026-04-26 17:32 35.27555 31.48378 20845 ft 314 kts 124°
2026-04-26 17:32 35.26353 31.50588 20524 ft 312 kts 124°
2026-04-26 17:32 35.25151 31.52797 20200 ft 310 kts 124°
2026-04-26 17:32 35.23961 31.54984 19878 ft 308 kts 124°
2026-04-26 17:33 35.22778 31.57155 19560 ft 307 kts 124°
2026-04-26 17:33 35.21596 31.59325 19242 ft 305 kts 124°
2026-04-26 17:33 35.20421 31.61480 18920 ft 304 kts 124°
2026-04-26 17:34 35.18079 31.65769 18278 ft 302 kts 124°
2026-04-26 17:34 35.16915 31.67899 17934 ft 301 kts 124°
2026-04-26 17:34 35.15753 31.70024 17585 ft 300 kts 124°
2026-04-26 17:34 35.14596 31.72139 17252 ft 298 kts 124°
2026-04-26 17:35 35.13446 31.74240 16928 ft 297 kts 124°
2026-04-26 17:35 35.12299 31.76334 16610 ft 295 kts 124°
2026-04-26 17:35 35.11160 31.78414 16291 ft 294 kts 124°
2026-04-26 17:35 35.10024 31.80485 15977 ft 292 kts 124°
2026-04-26 17:36 35.08898 31.82536 15671 ft 291 kts 124°
2026-04-26 17:36 35.07776 31.84581 15359 ft 290 kts 124°
2026-04-26 17:36 35.06656 31.86620 15050 ft 289 kts 124°
2026-04-26 17:36 35.05539 31.88652 14747 ft 288 kts 124°
2026-04-26 17:37 35.04424 31.90679 14433 ft 287 kts 123°
2026-04-26 17:37 35.03314 31.92699 14133 ft 287 kts 123°
2026-04-26 17:37 35.02203 31.94715 13817 ft 286 kts 123°
2026-04-26 17:38 34.99982 31.98748 13141 ft 285 kts 123°
2026-04-26 17:38 34.98877 32.00751 12820 ft 284 kts 123°
2026-04-26 17:38 34.97777 32.02745 12504 ft 283 kts 123°
2026-04-26 17:38 34.96683 32.04728 12193 ft 282 kts 123°
2026-04-26 17:39 34.95589 32.06711 11878 ft 281 kts 123°
2026-04-26 17:39 34.94500 32.08681 11572 ft 279 kts 123°
2026-04-26 17:39 34.93418 32.10636 11260 ft 278 kts 123°
2026-04-26 17:39 34.92341 32.12581 10948 ft 278 kts 123°
2026-04-26 17:40 34.91245 32.14558 10471 ft 278 kts 123°
2026-04-26 17:40 34.90895 32.15189 10391 ft 277 kts 123°
2026-04-26 17:40 34.89108 32.18405 10067 ft 268 kts 123°
2026-04-26 17:40 34.88072 32.20270 9811 ft 266 kts 122°
2026-04-26 17:41 34.87035 32.22137 9526 ft 264 kts 122°
2026-04-26 17:41 34.86007 32.23986 9243 ft 263 kts 122°
2026-04-26 17:41 34.84987 32.25821 8973 ft 261 kts 122°
2026-04-26 17:41 34.83986 32.27622 8697 ft 259 kts 122°
2026-04-26 17:42 34.82979 32.29431 8427 ft 257 kts 122°
2026-04-26 17:42 34.81981 32.31222 8165 ft 255 kts 123°
2026-04-26 17:42 34.80985 32.33007 7910 ft 253 kts 122°
2026-04-26 17:42 34.80002 32.34770 7660 ft 251 kts 122°
2026-04-26 17:43 34.79030 32.36515 7401 ft 249 kts 122°
2026-04-26 17:43 34.78061 32.38252 7138 ft 247 kts 122°
2026-04-26 17:43 34.77098 32.39980 6874 ft 246 kts 122°
2026-04-26 17:43 34.76137 32.41702 6612 ft 245 kts 122°
2026-04-26 17:44 34.75183 32.43413 6334 ft 244 kts 122°
2026-04-26 17:44 34.74232 32.45117 6058 ft 243 kts 122°
2026-04-26 17:44 34.73288 32.46805 5779 ft 242 kts 122°
2026-04-26 17:44 34.72341 32.48499 5502 ft 241 kts 122°
2026-04-26 17:45 34.71401 32.50178 5225 ft 240 kts 122°
2026-04-26 17:45 34.70798 32.51300 5044 ft 239 kts 120°
2026-04-26 17:45 34.69954 32.53041 4763 ft 238 kts 118°
2026-04-26 17:45 34.68870 32.55336 4380 ft 229 kts 118°
2026-04-26 17:46 34.68352 32.56431 4251 ft 222 kts 118°
2026-04-26 17:46 34.67605 32.58007 4146 ft 209 kts 119°
2026-04-26 17:46 34.66895 32.59497 4080 ft 201 kts 119°
2026-04-26 17:46 34.66198 32.60957 4013 ft 198 kts 119°
2026-04-26 17:47 34.65508 32.62396 3937 ft 194 kts 119°
2026-04-26 17:47 34.65058 32.63336 3868 ft 190 kts 119°
2026-04-26 17:47 34.64180 32.65165 3656 ft 189 kts 120°
2026-04-26 17:47 34.63535 32.66544 3464 ft 187 kts 113°
2026-04-26 17:48 34.63523 32.68065 3289 ft 186 kts 63°
2026-04-26 17:48 34.64521 32.69029 3123 ft 192 kts 12°
2026-04-26 17:48 34.65796 32.68737 2948 ft 192 kts 323°
2026-04-26 17:48 34.66467 32.67423 2863 ft 185 kts 279°
2026-04-26 17:49 34.66716 32.65873 2726 ft 188 kts 283°
2026-04-26 17:49 34.67058 32.64374 2485 ft 180 kts 286°
2026-04-26 17:49 34.67441 32.62977 2301 ft 167 kts 288°
2026-04-26 17:49 34.67824 32.61686 2047 ft 158 kts 289°
2026-04-26 17:50 34.68197 32.60448 1837 ft 155 kts 289°
2026-04-26 17:50 34.68563 32.59234 1661 ft 154 kts 289°
2026-04-26 17:50 34.68933 32.58009 1442 ft 153 kts 289°
2026-04-26 17:50 34.69298 32.56800 1238 ft 151 kts 289°
2026-04-26 17:51 34.69653 32.55615 1042 ft 149 kts 288°
2026-04-26 17:51 34.69975 32.54427 838 ft 146 kts 289°
2026-04-26 17:51 34.70300 32.53283 645 ft 139 kts 291°
2026-04-26 17:51 34.70658 32.52180 472 ft 142 kts 294°
2026-04-26 17:52 34.71026 32.51076 291 ft 141 kts 291°
2026-04-26 17:52 34.71367 32.49957 96 ft 140 kts 291°
2026-04-26 17:52 34.71690 32.48891 42 ft 122 kts 289°
2026-04-26 17:52 34.71908 32.48175 43 ft 59 kts 291°
2026-04-26 17:53 34.72017 32.47818 43 ft 41 kts 290°
2026-04-26 17:53 34.72111 32.47513 46 ft 36 kts 290°
2026-04-26 17:53 34.72173 32.47309 46 ft 19 kts 291°
2026-04-26 17:54 34.72283 32.47133 46 ft 10 kts 15°
2026-04-26 17:54 34.72338 32.47158 47 ft 0 kts 20°
2026-04-26 17:56 34.72360 32.47171 48 ft 7 kts 35°
2026-04-26 17:56 34.72335 32.47357 47 ft 17 kts 110°
2026-04-26 17:57 34.72239 32.47668 46 ft 18 kts 110°
2026-04-26 17:57 34.72191 32.47827 46 ft 21 kts 110°
2026-04-26 17:57 34.72136 32.48005 45 ft 25 kts 110°
2026-04-26 17:57 34.72078 32.48197 44 ft 23 kts 110°
2026-04-26 17:58 34.71841 32.48433 44 ft 19 kts 199°
2026-04-26 17:59 34.71588 32.48320 43 ft 23 kts 200°
2026-04-26 17:59 34.71446 32.48257 43 ft 19 kts 200°
2026-04-26 17:59 34.71344 32.48215 44 ft 8 kts 199°
2026-04-26 17:59 34.71341 32.48213 44 ft 0 kts 199°